Location: Unspecified
(44.0704°N, 88.6889°W)
Time: 05:03:30
(UTC+02:00)

Altair - Pass Details

Date: 17 June 2019
Orbit: 1501 x 1683 km, 47.2° (Epoch: 17 July)

Event Time Altitude Azimuth Distance (km) Brightness Sun altitude
Rises 06:53:17 0° 259° (W) 4,771 10.1 -21.1°
Reaches altitude 10° 06:56:20 10° 261° (W) 3,811 9.6 -21.2°
Maximum altitude 07:06:08 79° 348° (NNW) 1,672 7.7 -21.6°
Drops below altitude 10° 07:16:18 10° 76° (ENE) 3,935 9.7 -22.0°
Sets 07:19:30 0° 78° (ENE) 4,933 10.2 -22.1°
